Вернуться в каталог

STARLINK-5346

АктивенСвязьVLEO
NORAD 56518·PAYLOAD·🇺🇸 United States

Запущен May 14, 2023 с Cape Canaveral Space Force Station

Loading…

Ближайшие Пролёты (ближайшие 24 часа)

TLE

СвежийSource: CelesTrak SupGP

Эпоха: Sep 15, 2026, 03:08 UTC

1 56518C 23065R   26258.13104167 -.00031101  00000+0 -11267-2 0  2581
2 56518  42.9999 222.6151 0000925 268.5048  44.0793 15.27587638    17

Отслеживайте STARLINK-5346 в реальном времени с AllMySat

Download on the App Store